| time (UTC) | temp C | wind direction | speed KPH | gust KPH | rain 1hr cm | rain 24hr cm | rain mn cm | humidity % | barometer mb |
| 20260506073511 | 1 | 259 | 1.6 | 6.4 | 0.00 | 0.00 | 0.00 | 65 | 1012.8 |
| 20260506073032 | 1 | 300 | 0.0 | 4.8 | 0.00 | 0.00 | 0.00 | 67 | 1012.8 |
| 20260506072512 | 1 | 300 | 0.0 | 4.8 | 0.00 | 0.00 | 0.00 | 66 | 1012.8 |
| 20260506072014 | 1 | 300 | 1.6 | 4.8 | 0.00 | 0.00 | 0.00 | 66 | 1012.8 |
| 20260506071531 | 1 | 300 | 1.6 | 4.8 | 0.00 | 0.00 | 0.00 | 66 | 1012.7 |
| 20260506071010 | 1 | 0 | 0.0 | 6.4 | 0.00 | 0.00 | 0.00 | 68 | 1012.7 |
| 20260506070512 | 1 | 0 | 0.0 | 6.4 | 0.00 | 0.00 | 0.00 | 66 | 1012.7 |
| 20260506062512 | 1 | 298 | 1.6 | 8.0 | 0.00 | 0.00 | 0.00 | 65 | 1012.6 |
| 20260506062015 | 1 | 290 | 0.0 | 8.0 | 0.00 | 0.00 | 0.00 | 66 | 1012.6 |
| 20260506061532 | 1 | 0 | 1.6 | 8.0 | 0.00 | 0.00 | 0.00 | 65 | 1012.6 |
| 20260506061010 | 1 | 0 | 3.2 | 8.0 | 0.00 | 0.00 | 0.00 | 65 | 1012.5 |
| 20260506060513 | 1 | 319 | 0.0 | 8.0 | 0.00 | 0.00 | 0.00 | 67 | 1012.5 |
| 20260506051011 | 1 | 302 | 1.6 | 6.4 | 0.00 | 0.00 | 0.00 | 68 | 1012.1 |
| 20260506050512 | 1 | 0 | 0.0 | 12.9 | 0.00 | 0.00 | 0.00 | 68 | 1012.1 |
| 20260506045011 | 1 | 0 | 0.0 | 1.6 | 0.00 | 0.00 | 0.00 | 69 | 1011.9 |
| 20260506044538 | 1 | 0 | 0.0 | 0.0 | 0.00 | 0.00 | 0.00 | 68 | 1011.9 |
| 20260506044011 | 1 | 0 | 0.0 | 0.0 | 0.00 | 0.00 | 0.00 | 68 | 1011.8 |
| 20260506043515 | 1 | 0 | 0.0 | 0.0 | 0.00 | 0.00 | 0.00 | 68 | 1011.8 |
| 20260506043032 | 1 | 0 | 0.0 | 0.0 | 0.00 | 0.00 | 0.00 | 67 | 1011.9 |
| 20260506042511 | 1 | 0 | 0.0 | 3.2 | 0.00 | 0.00 | 0.00 | 66 | 1011.9 |
| 20260506042014 | 1 | 0 | 0.0 | 3.2 | 0.00 | 0.00 | 0.00 | 67 | 1011.9 |
| 20260506041546 | 1 | 0 | 0.0 | 1.6 | 0.00 | 0.00 | 0.00 | 66 | 1011.9 |
| 20260506041015 | 1 | 0 | 0.0 | 3.2 | 0.00 | 0.00 | 0.00 | 66 | 1011.9 |
| 20260506040510 | 1 | 0 | 0.0 | 4.8 | 0.00 | 0.00 | 0.00 | 65 | 1011.9 |
| 20260506040033 | 2 | 0 | 0.0 | 6.4 | 0.00 | 0.00 | 0.00 | 65 | 1011.9 |
| 20260506035509 | 2 | 0 | 1.6 | 6.4 | 0.00 | 0.00 | 0.00 | 64 | 1011.9 |
| 20260506035010 | 2 | 0 | 0.0 | 3.2 | 0.00 | 0.00 | 0.00 | 64 | 1011.9 |
| 20260506034531 | 2 | 0 | 0.0 | 3.2 | 0.00 | 0.00 | 0.00 | 65 | 1012.0 |
| 20260506034011 | 2 | 0 | 0.0 | 4.8 | 0.00 | 0.00 | 0.00 | 64 | 1011.9 |
| 20260506033512 | 2 | 292 | 0.0 | 4.8 | 0.00 | 0.00 | 0.00 | 63 | 1011.9 |
| 20260506033032 | 2 | 292 | 0.0 | 4.8 | 0.00 | 0.00 | 0.00 | 64 | 1011.9 |
| 20260506032511 | 2 | 292 | 0.0 | 3.2 | 0.00 | 0.00 | 0.00 | 63 | 1011.9 |
| 20260506032015 | 2 | 0 | 0.0 | 4.8 | 0.00 | 0.00 | 0.00 | 63 | 1011.9 |
| 20260506031533 | 2 | 0 | 0.0 | 8.0 | 0.00 | 0.00 | 0.00 | 62 | 1012.0 |
| 20260506031012 | 2 | 317 | 1.6 | 12.9 | 0.00 | 0.00 | 0.00 | 62 | 1011.9 |
| 20260506030515 | 3 | 0 | 1.6 | 12.9 | 0.00 | 0.00 | 0.00 | 61 | 1011.9 |
| 20260506030031 | 3 | 325 | 1.6 | 4.8 | 0.00 | 0.00 | 0.00 | 62 | 1011.8 |
| 20260506025511 | 3 | 336 | 1.6 | 4.8 | 0.00 | 0.00 | 0.00 | 61 | 1011.7 |
| 20260506025011 | 3 | 355 | 0.0 | 6.4 | 0.00 | 0.00 | 0.00 | 61 | 1011.7 |
| 20260506024536 | 3 | 0 | 0.0 | 6.4 | 0.00 | 0.00 | 0.00 | 61 | 1011.7 |
| 20260506024014 | 3 | 265 | 1.6 | 6.4 | 0.00 | 0.00 | 0.00 | 61 | 1011.6 |
| 20260506023513 | 3 | 0 | 0.0 | 9.7 | 0.00 | 0.00 | 0.00 | 61 | 1011.6 |
| 20260506023031 | 3 | 273 | 3.2 | 9.7 | 0.00 | 0.00 | 0.00 | 60 | 1011.5 |
| 20260506022510 | 3 | 329 | 1.6 | 11.3 | 0.00 | 0.00 | 0.00 | 61 | 1011.5 |
| 20260506022012 | 3 | 277 | 1.6 | 11.3 | 0.00 | 0.00 | 0.00 | 60 | 1011.5 |
| 20260506021530 | 3 | 0 | 1.6 | 6.4 | 0.00 | 0.00 | 0.00 | 60 | 1011.4 |
| 20260506021016 | 3 | 286 | 1.6 | 14.5 | 0.00 | 0.00 | 0.00 | 60 | 1011.3 |
| 20260506020515 | 3 | 286 | 1.6 | 14.5 | 0.00 | 0.00 | 0.00 | 62 | 1011.2 |
| 20260506020030 | 3 | 279 | 3.2 | 14.5 | 0.00 | 0.00 | 0.00 | 61 | 1011.2 |
| 20260506015510 | 3 | 329 | 0.0 | 4.8 | 0.00 | 0.00 | 0.00 | 62 | 1011.2 |
| 20260506015015 | 3 | 329 | 0.0 | 4.8 | 0.00 | 0.00 | 0.00 | 61 | 1011.1 |
| 20260506014532 | 3 | 0 | 0.0 | 4.8 | 0.00 | 0.00 | 0.00 | 61 | 1011.1 |
| 20260506014010 | 3 | 329 | 1.6 | 9.7 | 0.00 | 0.00 | 0.00 | 59 | 1011.0 |
| 20260506013511 | 3 | 18 | 3.2 | 9.7 | 0.00 | 0.00 | 0.00 | 59 | 1010.9 |
| 20260506013032 | 3 | 0 | 3.2 | 9.7 | 0.00 | 0.00 | 0.00 | 59 | 1011.0 |
| 20260506012510 | 3 | 0 | 1.6 | 8.0 | 0.00 | 0.00 | 0.00 | 59 | 1010.9 |
| 20260506012015 | 4 | 325 | 0.0 | 8.0 | 0.00 | 0.00 | 0.00 | 59 | 1010.9 |
| 20260506011558 | 4 | 263 | 1.6 | 8.0 | 0.00 | 0.00 | 0.00 | 58 | 1010.8 |
| 20260506011015 | 4 | 310 | 3.2 | 9.7 | 0.00 | 0.00 | 0.00 | 59 | 1010.7 |
| 20260506010510 | 4 | 319 | 3.2 | 9.7 | 0.00 | 0.00 | 0.00 | 58 | 1010.6 |
| 20260506010031 | 4 | 334 | 1.6 | 12.9 | 0.00 | 0.00 | 0.00 | 57 | 1010.6 |
| 20260506005515 | 4 | 321 | 0.0 | 12.9 | 0.00 | 0.00 | 0.00 | 60 | 1010.6 |
| 20260506005010 | 4 | 321 | 3.2 | 12.9 | 0.00 | 0.00 | 0.00 | 57 | 1010.4 |
| 20260506004541 | 4 | 0 | 1.6 | 9.7 | 0.00 | 0.00 | 0.00 | 57 | 1010.4 |
| 20260506004012 | 4 | 267 | 3.2 | 9.7 | 0.00 | 0.00 | 0.00 | 57 | 1010.4 |
| 20260506003528 | 5 | 351 | 3.2 | 12.9 | 0.00 | 0.00 | 0.00 | 57 | 1010.3 |
| 20260506003031 | 5 | 326 | 3.2 | 12.9 | 0.00 | 0.00 | 0.00 | 56 | 1010.3 |
| 20260506002514 | 5 | 289 | 1.6 | 6.4 | 0.00 | 0.00 | 0.00 | 59 | 1010.3 |
| 20260506002017 | 5 | 0 | 0.0 | 6.4 | 0.00 | 0.00 | 0.00 | 57 | 1010.2 |
| 20260506001532 | 5 | 287 | 1.6 | 16.1 | 0.00 | 0.00 | 0.00 | 57 | 1010.3 |
| 20260506001011 | 5 | 317 | 3.2 | 16.1 | 0.00 | 0.00 | 0.00 | 55 | 1010.2 |
| 20260506000516 | 5 | 290 | 3.2 | 16.1 | 0.00 | 0.00 | 0.00 | 56 | 1010.1 |
| 20260506000032 | 5 | 334 | 6.4 | 16.1 | 0.00 | 0.00 | 0.00 | 55 | 1010.1 |
| 20260505235511 | 5 | 328 | 3.2 | 12.9 | 0.00 | 0.00 | 0.00 | 55 | 1010.1 |
| 20260505235011 | 5 | 254 | 3.2 | 12.9 | 0.00 | 0.00 | 0.00 | 54 | 1010.0 |
| 20260505234530 | 5 | 337 | 3.2 | 14.5 | 0.00 | 0.00 | 0.00 | 55 | 1010.0 |
| 20260505234014 | 5 | 0 | 3.2 | 14.5 | 0.00 | 0.00 | 0.00 | 57 | 1010.1 |
| 20260505233510 | 5 | 323 | 1.6 | 6.4 | 0.00 | 0.00 | 0.00 | 56 | 1010.0 |
| 20260505233034 | 5 | 295 | 3.2 | 11.3 | 0.00 | 0.00 | 0.00 | 55 | 1009.9 |
| 20260505232512 | 5 | 311 | 4.8 | 12.9 | 0.00 | 0.00 | 0.00 | 55 | 1009.9 |
| 20260505232013 | 5 | 0 | 3.2 | 12.9 | 0.00 | 0.00 | 0.00 | 55 | 1009.9 |
| 20260505231538 | 5 | 280 | 3.2 | 11.3 | 0.00 | 0.00 | 0.00 | 55 | 1009.9 |
| 20260505231011 | 5 | 285 | 4.8 | 11.3 | 0.00 | 0.00 | 0.00 | 54 | 1010.0 |
| 20260505230511 | 5 | 331 | 3.2 | 14.5 | 0.00 | 0.00 | 0.00 | 54 | 1010.0 |
| 20260505230031 | 5 | 275 | 3.2 | 20.9 | 0.00 | 0.00 | 0.00 | 55 | 1009.9 |
| 20260505225513 | 5 | 280 | 6.4 | 20.9 | 0.00 | 0.00 | 0.00 | 54 | 1009.9 |
| 20260505225013 | 5 | 282 | 4.8 | 19.3 | 0.00 | 0.00 | 0.00 | 53 | 1009.7 |
| 20260505224529 | 5 | 266 | 0.0 | 12.9 | 0.00 | 0.00 | 0.00 | 56 | 1009.8 |
| 20260505224013 | 6 | 289 | 3.2 | 12.9 | 0.00 | 0.00 | 0.00 | 53 | 1009.8 |
| 20260505223517 | 6 | 271 | 3.2 | 11.3 | 0.00 | 0.00 | 0.00 | 54 | 1009.8 |
| 20260505223033 | 6 | 0 | 1.6 | 12.9 | 0.00 | 0.00 | 0.00 | 52 | 1009.7 |
| 20260505222510 | 6 | 265 | 3.2 | 14.5 | 0.00 | 0.00 | 0.00 | 52 | 1009.8 |
| 20260505222018 | 6 | 270 | 6.4 | 14.5 | 0.00 | 0.00 | 0.00 | 51 | 1009.7 |
| 20260505221534 | 6 | 211 | 3.2 | 17.7 | 0.00 | 0.00 | 0.00 | 51 | 1009.5 |
| 20260505221010 | 6 | 355 | 1.6 | 17.7 | 0.00 | 0.00 | 0.00 | 53 | 1009.6 |
| 20260505220512 | 6 | 295 | 6.4 | 17.7 | 0.00 | 0.00 | 0.00 | 52 | 1009.6 |
| 20260505220046 | 6 | 288 | 3.2 | 14.5 | 0.00 | 0.00 | 0.00 | 52 | 1009.6 |
| 20260505215514 | 6 | 309 | 3.2 | 14.5 | 0.00 | 0.00 | 0.00 | 52 | 1009.6 |
| 20260505215011 | 6 | 265 | 6.4 | 14.5 | 0.00 | 0.00 | 0.00 | 50 | 1009.5 |
| 20260505214533 | 6 | 225 | 3.2 | 14.5 | 0.00 | 0.00 | 0.00 | 52 | 1009.6 |
| 20260505214013 | 6 | 305 | 3.2 | 14.5 | 0.00 | 0.00 | 0.00 | 52 | 1009.5 |
| 20260505213511 | 6 | 308 | 3.2 | 16.1 | 0.00 | 0.00 | 0.00 | 51 | 1009.5 |
| 20260505213032 | 6 | 264 | 4.8 | 19.3 | 0.00 | 0.00 | 0.00 | 51 | 1009.5 |
| 20260505212509 | 6 | 267 | 8.0 | 19.3 | 0.00 | 0.00 | 0.00 | 50 | 1009.6 |
| 20260505212017 | 6 | 246 | 9.7 | 17.7 | 0.00 | 0.00 | 0.00 | 49 | 1009.5 |
| 20260505211537 | 6 | 260 | 6.4 | 16.1 | 0.00 | 0.00 | 0.00 | 51 | 1009.5 |
| 20260505211008 | 6 | 277 | 8.0 | 14.5 | 0.00 | 0.00 | 0.00 | 53 | 1009.6 |
| 20260505210511 | 6 | 261 | 8.0 | 17.7 | 0.00 | 0.00 | 0.00 | 51 | 1009.4 |
| 20260505210039 | 6 | 273 | 4.8 | 17.7 | 0.00 | 0.00 | 0.00 | 53 | 1009.5 |
| 20260505205516 | 6 | 265 | 4.8 | 19.3 | 0.00 | 0.00 | 0.00 | 53 | 1009.6 |
| 20260505205014 | 6 | 265 | 4.8 | 19.3 | 0.00 | 0.00 | 0.00 | 52 | 1009.5 |
| 20260505204531 | 6 | 268 | 9.7 | 19.3 | 0.00 | 0.00 | 0.00 | 51 | 1009.6 |
| 20260505204011 | 6 | 263 | 6.4 | 19.3 | 0.00 | 0.00 | 0.00 | 51 | 1009.5 |
| 20260505203511 | 6 | 300 | 6.4 | 16.1 | 0.00 | 0.00 | 0.00 | 54 | 1009.5 |
| 20260505203033 | 6 | 296 | 6.4 | 14.5 | 0.00 | 0.00 | 0.00 | 51 | 1009.4 |
| 20260505202508 | 6 | 272 | 6.4 | 16.1 | 0.00 | 0.00 | 0.00 | 52 | 1009.5 |
| 20260505202014 | 5 | 286 | 6.4 | 16.1 | 0.00 | 0.00 | 0.00 | 55 | 1009.6 |
| 20260505201530 | 5 | 264 | 4.8 | 17.7 | 0.00 | 0.00 | 0.00 | 54 | 1009.6 |
| 20260505201009 | 5 | 278 | 8.0 | 17.7 | 0.00 | 0.00 | 0.00 | 53 | 1009.6 |
| 20260505200513 | 5 | 276 | 3.2 | 14.5 | 0.00 | 0.00 | 0.00 | 55 | 1009.5 |
| 20260505200030 | 5 | 302 | 4.8 | 20.9 | 0.00 | 0.00 | 0.00 | 54 | 1009.6 |
| 20260505195512 | 5 | 273 | 8.0 | 20.9 | 0.00 | 0.00 | 0.00 | 53 | 1009.6 |
| 20260505195012 | 5 | 261 | 11.3 | 20.9 | 0.00 | 0.00 | 0.00 | 52 | 1009.6 |
| 20260505194528 | 5 | 257 | 8.0 | 20.9 | 0.00 | 0.00 | 0.00 | 51 | 1009.4 |
| 20260505194018 | 5 | 271 | 6.4 | 17.7 | 0.00 | 0.00 | 0.00 | 55 | 1009.4 |
| 20260505193511 | 5 | 239 | 4.8 | 22.5 | 0.00 | 0.00 | 0.00 | 55 | 1009.5 |
| 20260505193035 | 5 | 283 | 8.0 | 22.5 | 0.00 | 0.00 | 0.00 | 53 | 1009.6 |
| 20260505192509 | 5 | 254 | 9.7 | 20.9 | 0.00 | 0.00 | 0.00 | 53 | 1009.6 |
| 20260505192015 | 5 | 272 | 4.8 | 14.5 | 0.00 | 0.00 | 0.00 | 54 | 1009.5 |
| 20260505191529 | 5 | 238 | 6.4 | 14.5 | 0.00 | 0.00 | 0.00 | 52 | 1009.5 |
| 20260505191009 | 5 | 329 | 3.2 | 19.3 | 0.00 | 0.00 | 0.00 | 54 | 1009.4 |
| 20260505190517 | 5 | 270 | 4.8 | 19.3 | 0.00 | 0.00 | 0.00 | 54 | 1009.5 |
| 20260505190029 | 5 | 309 | 4.8 | 16.1 | 0.00 | 0.00 | 0.00 | 53 | 1009.4 |
| 20260505185509 | 5 | 276 | 6.4 | 16.1 | 0.00 | 0.00 | 0.00 | 56 | 1009.4 |
| 20260505185012 | 5 | 263 | 6.4 | 16.1 | 0.00 | 0.00 | 0.00 | 54 | 1009.4 |
| 20260505184531 | 5 | 263 | 4.8 | 14.5 | 0.00 | 0.00 | 0.00 | 56 | 1009.4 |
| 20260505184009 | 5 | 304 | 3.2 | 16.1 | 0.00 | 0.00 | 0.00 | 56 | 1009.5 |
| 20260505183512 | 4 | 311 | 4.8 | 16.1 | 0.00 | 0.00 | 0.00 | 56 | 1009.4 |
| 20260505183043 | 4 | 321 | 8.0 | 17.7 | 0.00 | 0.00 | 0.00 | 55 | 1009.5 |
| 20260505182509 | 4 | 250 | 4.8 | 17.7 | 0.00 | 0.00 | 0.00 | 55 | 1009.5 |
| 20260505182015 | 4 | 253 | 6.4 | 17.7 | 0.00 | 0.00 | 0.00 | 57 | 1009.4 |
| 20260505181550 | 4 | 284 | 6.4 | 17.7 | 0.00 | 0.00 | 0.00 | 54 | 1009.5 |
| 20260505181012 | 4 | 261 | 3.2 | 14.5 | 0.00 | 0.00 | 0.00 | 55 | 1009.4 |
| 20260505180514 | 4 | 271 | 4.8 | 17.7 | 0.00 | 0.00 | 0.00 | 56 | 1009.4 |
| 20260505180029 | 3 | 265 | 6.4 | 17.7 | 0.00 | 0.00 | 0.00 | 57 | 1009.5 |
| 20260505175509 | 3 | 260 | 6.4 | 17.7 | 0.00 | 0.00 | 0.00 | 57 | 1009.5 |
| 20260505175010 | 3 | 262 | 6.4 | 20.9 | 0.00 | 0.00 | 0.00 | 58 | 1009.5 |
| 20260505174529 | 3 | 255 | 11.3 | 20.9 | 0.00 | 0.00 | 0.00 | 56 | 1009.5 |
| 20260505174009 | 3 | 271 | 8.0 | 16.1 | 0.00 | 0.00 | 0.00 | 57 | 1009.5 |
| 20260505173513 | 3 | 264 | 4.8 | 14.5 | 0.00 | 0.00 | 0.00 | 59 | 1009.5 |
| 20260505173028 | 3 | 265 | 3.2 | 14.5 | 0.00 | 0.00 | 0.00 | 59 | 1009.4 |
| 20260505172516 | 3 | 264 | 6.4 | 17.7 | 0.00 | 0.00 | 0.00 | 58 | 1009.4 |
| 20260505172014 | 2 | 275 | 4.8 | 17.7 | 0.00 | 0.00 | 0.00 | 60 | 1009.4 |
| 20260505171530 | 2 | 275 | 8.0 | 17.7 | 0.00 | 0.00 | 0.00 | 60 | 1009.4 |
| 20260505171011 | 2 | 311 | 3.2 | 17.7 | 0.00 | 0.00 | 0.00 | 62 | 1009.5 |
| 20260505170514 | 2 | 274 | 6.4 | 17.7 | 0.00 | 0.00 | 0.00 | 62 | 1009.4 |
| 20260505170030 | 2 | 254 | 6.4 | 17.7 | 0.00 | 0.00 | 0.00 | 61 | 1009.5 |
| 20260505165509 | 2 | 277 | 6.4 | 17.7 | 0.00 | 0.00 | 0.00 | 63 | 1009.4 |
| 20260505165014 | 2 | 309 | 1.6 | 12.9 | 0.00 | 0.00 | 0.00 | 63 | 1009.2 |
| 20260505164545 | 2 | 265 | 4.8 | 14.5 | 0.00 | 0.00 | 0.00 | 62 | 1009.2 |
| 20260505164011 | 2 | 259 | 4.8 | 14.5 | 0.00 | 0.00 | 0.00 | 63 | 1009.3 |
| 20260505163510 | 2 | 266 | 6.4 | 14.5 | 0.00 | 0.00 | 0.00 | 63 | 1009.1 |
| 20260505163030 | 2 | 277 | 4.8 | 17.7 | 0.00 | 0.00 | 0.00 | 63 | 1009.2 |
| 20260505162510 | 2 | 227 | 4.8 | 17.7 | 0.00 | 0.00 | 0.00 | 63 | 1009.1 |
| 20260505162014 | 2 | 268 | 4.8 | 16.1 | 0.00 | 0.00 | 0.00 | 62 | 1009.1 |
| 20260505161527 | 2 | 272 | 4.8 | 16.1 | 0.00 | 0.00 | 0.00 | 63 | 1009.1 |
| 20260505161011 | 2 | 294 | 6.4 | 16.1 | 0.00 | 0.00 | 0.00 | 62 | 1009.1 |
| 20260505160511 | 2 | 268 | 6.4 | 16.1 | 0.00 | 0.00 | 0.00 | 63 | 1009.1 |
| 20260505153032 | 2 | 290 | 4.8 | 12.9 | 0.00 | 0.00 | 0.00 | 60 | 1008.5 |
| 20260505152512 | 2 | 0 | 3.2 | 16.1 | 0.00 | 0.00 | 0.00 | 61 | 1008.4 |
| 20260505152010 | 2 | 282 | 6.4 | 22.5 | 0.00 | 0.00 | 0.00 | 60 | 1008.4 |
| 20260505151531 | 2 | 288 | 8.0 | 22.5 | 0.00 | 0.00 | 0.00 | 60 | 1008.4 |
| 20260505151010 | 2 | 263 | 3.2 | 11.3 | 0.00 | 0.00 | 0.00 | 61 | 1008.2 |
| 20260505150513 | 2 | 273 | 3.2 | 22.5 | 0.00 | 0.00 | 0.00 | 62 | 1008.1 |
| 20260505140512 | 3 | 231 | 3.2 | 14.5 | 0.00 | 0.00 | 0.00 | 64 | 1007.5 |
| 20260505125012 | 1 | 331 | 3.2 | 16.1 | 0.00 | 0.00 | 0.00 | 71 | 1007.0 |
| 20260505124539 | 1 | 230 | 6.4 | 14.5 | 0.00 | 0.00 | 0.00 | 70 | 1006.9 |
| 20260505124010 | 1 | 328 | 3.2 | 16.1 | 0.00 | 0.00 | 0.00 | 71 | 1006.7 |
| 20260505123513 | 0 | 281 | 3.2 | 16.1 | 0.00 | 0.00 | 0.00 | 71 | 1006.7 |
| 20260505123031 | 0 | 285 | 4.8 | 16.1 | 0.00 | 0.00 | 0.00 | 72 | 1006.6 |
| 20260505122507 | 0 | 333 | 6.4 | 14.5 | 0.00 | 0.00 | 0.00 | 72 | 1006.6 |
| 20260505122015 | 0 | 265 | 8.0 | 14.5 | 0.00 | 0.00 | 0.00 | 73 | 1006.5 |
| 20260505121535 | 0 | 278 | 6.4 | 17.7 | 0.00 | 0.00 | 0.00 | 73 | 1006.4 |
| 20260505121011 | 0 | 285 | 4.8 | 17.7 | 0.00 | 0.00 | 0.00 | 74 | 1006.5 |
| 20260505120511 | 0 | 263 | 4.8 | 16.1 | 0.00 | 0.00 | 0.00 | 77 | 1006.4 |
| 20260505120037 | 0 | 327 | 3.2 | 14.5 | 0.00 | 0.00 | 0.00 | 78 | 1006.3 |
| 20260505115509 | 0 | 281 | 3.2 | 14.5 | 0.00 | 0.00 | 0.00 | 79 | 1006.2 |
| 20260505115012 | 0 | 296 | 4.8 | 14.5 | 0.00 | 0.00 | 0.00 | 79 | 1006.2 |
| 20260505114530 | 0 | 267 | 3.2 | 17.7 | 0.00 | 0.00 | 0.00 | 80 | 1006.0 |
| 20260505114011 | 0 | 281 | 4.8 | 17.7 | 0.00 | 0.00 | 0.00 | 80 | 1006.1 |
| 20260505113511 | 0 | 272 | 6.4 | 17.7 | 0.00 | 0.00 | 0.00 | 80 | 1006.0 |
| 20260505113032 | 0 | 266 | 6.4 | 16.1 | 0.00 | 0.00 | 0.00 | 79 | 1006.0 |
| 20260505112510 | 1 | 315 | 4.8 | 16.1 | 0.00 | 0.00 | 0.00 | 79 | 1006.1 |
| 20260505112010 | 1 | 278 | 3.2 | 12.9 | 0.00 | 0.00 | 0.00 | 77 | 1006.0 |
| 20260505111529 | 1 | 271 | 3.2 | 12.9 | 0.00 | 0.00 | 0.00 | 76 | 1005.9 |
| 20260505111015 | 1 | 274 | 4.8 | 12.9 | 0.00 | 0.00 | 0.00 | 76 | 1005.8 |
| 20260505110511 | 1 | 262 | 3.2 | 11.3 | 0.00 | 0.00 | 0.00 | 76 | 1005.7 |
| 20260505102012 | 1 | 263 | 3.2 | 11.3 | 0.00 | 0.00 | 0.00 | 76 | 1005.2 |
| 20260505101532 | 1 | 231 | 3.2 | 11.3 | 0.00 | 0.00 | 0.00 | 76 | 1005.1 |
| 20260505101013 | 1 | 271 | 1.6 | 11.3 | 0.00 | 0.00 | 0.00 | 75 | 1005.0 |
| 20260505100512 | 1 | 278 | 1.6 | 11.3 | 0.00 | 0.00 | 0.00 | 75 | 1005.0 |
| 20260505100030 | 1 | 294 | 3.2 | 14.5 | 0.00 | 0.00 | 0.00 | 74 | 1004.8 |
| 20260505095510 | 1 | 294 | 4.8 | 16.1 | 0.00 | 0.00 | 0.00 | 73 | 1004.8 |
| 20260505095013 | 1 | 272 | 1.6 | 16.1 | 0.00 | 0.00 | 0.00 | 73 | 1004.8 |
| 20260505094531 | 1 | 286 | 3.2 | 16.1 | 0.00 | 0.00 | 0.00 | 72 | 1004.7 |
| 20260505094010 | 1 | 245 | 1.6 | 6.4 | 0.00 | 0.00 | 0.00 | 72 | 1004.7 |
| 20260505093511 | 1 | 0 | 1.6 | 8.0 | 0.00 | 0.00 | 0.00 | 71 | 1004.7 |
| 20260505093031 | 1 | 269 | 3.2 | 8.0 | 0.00 | 0.00 | 0.00 | 71 | 1004.6 |
| 20260505092514 | 1 | 255 | 3.2 | 6.4 | 0.00 | 0.00 | 0.00 | 70 | 1004.5 |
| 20260505092013 | 2 | 255 | 1.6 | 4.8 | 0.00 | 0.00 | 0.00 | 70 | 1004.4 |
| 20260505091530 | 2 | 255 | 1.6 | 4.8 | 0.00 | 0.00 | 0.00 | 71 | 1004.4 |
| 20260505091011 | 2 | 255 | 1.6 | 4.8 | 0.00 | 0.00 | 0.00 | 71 | 1004.3 |
| 20260505090509 | 2 | 255 | 0.0 | 3.2 | 0.00 | 0.00 | 0.00 | 71 | 1004.3 |
| 20260505090033 | 2 | 255 | 1.6 | 3.2 | 0.00 | 0.00 | 0.00 | 72 | 1004.2 |
| 20260505085513 | 2 | 255 | 1.6 | 3.2 | 0.00 | 0.00 | 0.00 | 71 | 1004.3 |
| 20260505085012 | 2 | 0 | 0.0 | 3.2 | 0.00 | 0.00 | 0.00 | 71 | 1004.1 |
| 20260505084543 | 2 | 0 | 0.0 | 3.2 | 0.00 | 0.00 | 0.00 | 71 | 1004.1 |
| 20260505084011 | 2 | 0 | 0.0 | 3.2 | 0.00 | 0.00 | 0.00 | 71 | 1004.0 |
| 20260505083511 | 2 | 0 | 0.0 | 3.2 | 0.00 | 0.00 | 0.00 | 71 | 1004.1 |
| 20260505083033 | 2 | 0 | 0.0 | 3.2 | 0.00 | 0.00 | 0.00 | 70 | 1004.1 |
| 20260505082510 | 2 | 0 | 0.0 | 3.2 | 0.00 | 0.00 | 0.00 | 70 | 1004.0 |
| 20260505082010 | 2 | 255 | 0.0 | 1.6 | 0.00 | 0.00 | 0.00 | 69 | 1004.1 |
| 20260505081533 | 2 | 0 | 0.0 | 3.2 | 0.00 | 0.00 | 0.00 | 69 | 1004.0 |
| 20260505081011 | 2 | 0 | 0.0 | 3.2 | 0.00 | 0.00 | 0.00 | 69 | 1004.0 |
| 20260505080513 | 2 | 255 | 0.0 | 9.7 | 0.00 | 0.00 | 0.00 | 69 | 1003.9 |
| 20260505080029 | 2 | 0 | 1.6 | 9.7 | 0.00 | 0.00 | 0.00 | 67 | 1003.9 |